Weather Roundup
Issued by NWS

Home | Current Version | Previous Version | Graphics & Text | Print | Product List | Glossary Off
Versions: 1 2 3 4 5 6 7 8 9 10 11 12 13 14 15 16 17 18 19 20 21 22 23 24 25 26 27 28 29 30 31 32 33 34 35 36 37 38 39 40 41 42 43 44 45 46 47 48 49 50

432
NZUS93 KARX 222010
HRRWXR

CURRENT HOURLY OBSERVATIONS ACROSS
MUCH OF THE UPPER MISSISSIPPI VALLEY
NATIONAL WEATHER SERVICE LA CROSSE WI
300 PM CDT SUN APR 22 2018


...SOUTHEAST MINNESOTA...


CITY           SKY/WX    TMP DP  RH WIND       PRES   REMARKS
ROCHESTER      FAIR      58  36  43 E9        30.30F
ROCHESTER/MAYO FAIR      59  32  36 NE9       30.30F
WINONA         FAIR      61  28  29 SE8       30.28F
AUSTIN         FAIR      55  36  47 E8        30.29F
ALBERT LEA     FAIR      55  28  35 E10       30.29F
DODGE CENTER   FAIR      57  34  41 E6        30.30F
PRESTON        FAIR      57  30  35 E8        30.30F
OWATONNA       FAIR      59  41  51 E7        30.30F
FARIBAULT      FAIR      59  39  47 E7        30.30F
$$

...ELSEWHERE IN MINNESOTA...


CITY           SKY/WX    TMP DP  RH WIND       PRES   REMARKS
MINNEAPOLIS    FAIR      61  33  35 VRB7      30.29F
INTNL FALLS    FAIR      62  28  27 S13G20    30.18F
DULUTH         FAIR      60  29  30 W9        30.27F
RED WING       FAIR      63  23  22 SE7       30.29F
REDWOOD FALLS  SUNNY     58  38  47 S16G24    30.29F
MANKATO        FAIR      58  39  49 E8        30.30F
WORTHINGTON      N/A     53  35  50 E13       30.28F
FAIRMONT       MOSUNNY   49  35  58 NE8       30.30F
$$

...SOUTHWEST WISCONSIN...


CITY           SKY/WX    TMP DP  RH WIND       PRES   REMARKS
LA CROSSE      FAIR      64  29  26 E10       30.29F
PRAIRIE DU CHI FAIR      64  19  17 E9        30.27F
BOSCOBEL       FAIR      66  23  19 NE7G17    30.28F
LONE ROCK      FAIR      65  25  22 MISG      30.29F
PLATTEVILLE    FAIR      63  31  30 E12G18    30.28F
FORT MC COY    FAIR      61  28  29 SE6       30.32F
CAMP DOUGLAS   PTSUNNY   59  27  29 E8        30.30F
MAUSTON-NEW LI FAIR      60  23  24 SE5       30.30F
VIROQUA        FAIR      60  33  35 E10       30.30F
WIS DELLS      FAIR      60  18  19 N7        30.31F
$$

...ELSEWHERE IN WISCONSIN...


CITY           SKY/WX    TMP DP  RH WIND       PRES   REMARKS
MILWAUKEE      PTSUNNY   54  27  35 NE9       30.35F
MADISON        PTSUNNY   61  30  31 SE10G18   30.30F
GREEN BAY      FAIR      55  27  34 S7        30.35F
EAU CLAIRE     FAIR      63  32  31 SE13      30.29F
BLACK RVR FLS  FAIR      64  20  19 CALM      30.31S
MEDFORD        FAIR      54  30  39 S3        30.32F
WAUSAU         FAIR      59  24  26 E5        30.30F
WIS RAPIDS     FAIR      57  28  33 E8        30.33F
MARSHFIELD     FAIR      55  28  35 SE10      30.31F
RICE LAKE      FAIR      59  30  33 SW3       30.31F
$$

...NORTHEAST IOWA...


CITY           SKY/WX    TMP DP  RH WIND       PRES   REMARKS
WATERLOO       FAIR      65  32  29 E16G23    30.24F
DUBUQUE        FAIR      64  31  28 E14       30.25F
DECORAH        FAIR      61  30  31 E12G17    30.27F
MASON CITY     SUNNY     59  39  47 E10G18    30.28F
CHARLES CITY   FAIR      61  32  33 NE10G21   30.27F
OELWEIN        FAIR      63  32  31 E14G22    30.26F
$$

...ELSEWHERE IN IOWA...


CITY           SKY/WX    TMP DP  RH WIND       PRES   REMARKS
DES MOINES     PTSUNNY   69  28  21 E12G18    30.18F
IOWA CITY      FAIR      67  19  16 E13G22    30.22F
FORT DODGE     SUNNY     63  34  33 E13G22    30.24F
MARSHALLTOWN   MOSUNNY   67  25  20 E16       30.21F
CEDAR RAPIDS   FAIR      68  27  21 E17G24    30.21F
$$

...NORTHERN ILLINOIS...


CITY           SKY/WX    TMP DP  RH WIND       PRES   REMARKS
CHICAGO-OHARE  PTSUNNY   60  26  27 NE13      30.28F
CHICAGO-MIDWAY PTSUNNY   60  23  24 NE17      30.28F
MOLINE         FAIR      66  26  22 E16       30.20F
ROCKFORD       PTSUNNY   62  25  24 NE14G22   30.28F
PEORIA         CLOUDY    63  20  19 E15G25    30.20F
$$

NOTE: "FAIR" INDICATES FEW OR NO CLOUDS BELOW 12,000 FEET WITH NO
SIGNIFICANT WEATHER AND/OR OBSTRUCTIONS TO VISIBILITY. WIND
SPEEDS ARE IN MILES-PER-HOUR.




USA.gov is the U.S. government's official web portal to all federal, state and local government web resources and services.